When you browse on this site, cookies collect data to enhance your experience and personalize the content and advertising you see.
Visit our Privacy Policy to learn more. By continuing to use the site, you agree to this use of cookies and data.
  • In Netherlands
  • List of Countries
  • For 7 days
  • Water Temperature
  • Satellite Maps
  • Weather Map
  • Weather Widgets
  • user-avatar
    Login

    Hourly Weather Kostrichenka

    Today, 24 April, Wednesday

    Time Temperature Precipitation Wind Pressure Humidity
    00:00 +12°C° 0 mm 2 mps 753 mmHg 61%
    01:00 +12°C° 0 mm 2 mps 753 mmHg 63%
    02:00 +10°C° 0 mm 2 mps 753 mmHg 64%
    03:00 +10°C° 0 mm 2 mps 753 mmHg 66%
    04:00 +9°C° 0 mm 2 mps 753 mmHg 68%
    05:00 +9°C° 0 mm 2 mps 753 mmHg 69%
    06:00 +9°C° 0 mm 2 mps 753 mmHg 71%
    07:00 +12°C° 0 mm 2 mps 753 mmHg 65%
    08:00 +12°C° 0 mm 3 mps 754 mmHg 59%
    09:00 +14°C° 0 mm 3 mps 754 mmHg 54%
    10:00 +17°C° 0 mm 3 mps 754 mmHg 49%
    11:00 +18°C° 0 mm 3 mps 753 mmHg 44%
    12:00 +20°C° 0 mm 3 mps 753 mmHg 40%
    13:00 +20°C° 0 mm 3 mps 753 mmHg 38%
    14:00 +21°C° 0 mm 3 mps 753 mmHg 36%
    15:00 +21°C° 0 mm 3 mps 753 mmHg 35%
    16:00 +21°C° 0 mm 3 mps 753 mmHg 36%
    17:00 +21°C° 0 mm 3 mps 752 mmHg 38%
    18:00 +21°C° 0 mm 3 mps 752 mmHg 39%
    19:00 +19°C° 0 mm 2 mps 752 mmHg 43%
    20:00 +17°C° 0 mm 2 mps 752 mmHg 46%
    21:00 +16°C° 0 mm 2 mps 752 mmHg 50%
    22:00 +15°C° 0 mm 2 mps 752 mmHg 52%
    23:00 +15°C° 0 mm 2 mps 753 mmHg 54%

    Tomorrow, 25 April, Thursday

    Time Temperature Precipitation Wind Pressure Humidity
    00:00 +14°C° 0 mm 2 mps 753 mmHg 56%
    01:00 +13°C° 0 mm 2 mps 753 mmHg 58%
    02:00 +13°C° 0 mm 2 mps 753 mmHg 60%
    03:00 +12°C° 0 mm 2 mps 753 mmHg 61%
    04:00 +12°C° 0 mm 2 mps 753 mmHg 63%
    05:00 +12°C° 0 mm 2 mps 753 mmHg 65%
    06:00 +12°C° 0 mm 2 mps 753 mmHg 66%
    07:00 +14°C° 0 mm 2 mps 753 mmHg 61%
    08:00 +16°C° 0 mm 2 mps 753 mmHg 55%
    09:00 +17°C° 0 mm 2 mps 753 mmHg 50%
    10:00 +19°C° 0 mm 2 mps 753 mmHg 46%
    11:00 +20°C° 0 mm 3 mps 753 mmHg 41%
    12:00 +22°C° 0 mm 3 mps 753 mmHg 37%
    13:00 +22°C° 0 mm 3 mps 752 mmHg 36%
    14:00 +22°C° 0 mm 3 mps 752 mmHg 35%
    15:00 +24°C° 0 mm 2 mps 752 mmHg 34%
    16:00 +24°C° 0 mm 2 mps 751 mmHg 36%
    17:00 +23°C° 0 mm 2 mps 751 mmHg 38%
    18:00 +23°C° 0 mm 2 mps 751 mmHg 39%
    19:00 +22°C° 0 mm 1 mps 751 mmHg 42%
    20:00 +21°C° 0 mm 1 mps 751 mmHg 45%
    21:00 +20°C° 0 mm 1 mps 751 mmHg 48%
    22:00 +19°C° 0 mm 1 mps 751 mmHg 49%
    23:00 +19°C° 0 mm 1 mps 751 mmHg 50%

    Day after tomorrow, 26 April, Friday

    Time Temperature Precipitation Wind Pressure Humidity
    00:00 +19°C° 0 mm 1 mps 751 mmHg 51%
    01:00 +18°C° 0.2 mm 1 mps 751 mmHg 54%
    02:00 +16°C° 0.2 mm 1 mps 751 mmHg 57%
    03:00 +15°C° 0.2 mm 1 mps 751 mmHg 61%
    04:00 +15°C° 0.3 mm 1 mps 751 mmHg 63%
    05:00 +14°C° 0.3 mm 0 mps 751 mmHg 66%
    06:00 +13°C° 0.3 mm 0 mps 751 mmHg 69%
    07:00 +15°C° 0.5 mm 1 mps 751 mmHg 66%
    08:00 +16°C° 0.5 mm 1 mps 751 mmHg 63%
    09:00 +18°C° 0.5 mm 1 mps 751 mmHg 60%
    10:00 +18°C° 0.2 mm 2 mps 751 mmHg 56%
    11:00 +19°C° 0.2 mm 2 mps 750 mmHg 52%
    12:00 +20°C° 0.2 mm 3 mps 750 mmHg 48%
    13:00 +21°C° 0.3 mm 2 mps 750 mmHg 47%
    14:00 +21°C° 0.3 mm 2 mps 750 mmHg 46%
    15:00 +21°C° 0.3 mm 2 mps 749 mmHg 45%
    16:00 +21°C° 0.2 mm 2 mps 749 mmHg 48%
    17:00 +20°C° 0.2 mm 2 mps 749 mmHg 52%
    18:00 +19°C° 0.2 mm 2 mps 749 mmHg 56%
    19:00 +18°C° 0.7 mm 2 mps 748 mmHg 61%
    20:00 +18°C° 0.7 mm 1 mps 748 mmHg 65%
    21:00 +16°C° 0.7 mm 1 mps 748 mmHg 70%
    22:00 +15°C° 0 mm 1 mps 748 mmHg 72%
    23:00 +15°C° 0 mm 1 mps 748 mmHg 74%

    27 April, Saturday

    Time Temperature Precipitation Wind Pressure Humidity
    00:00 +14°C° 0 mm 1 mps 748 mmHg 76%
    01:00 +14°C° 0.1 mm 2 mps 747 mmHg 76%
    02:00 +14°C° 0.1 mm 2 mps 747 mmHg 76%
    03:00 +14°C° 0.1 mm 2 mps 747 mmHg 75%
    04:00 +14°C° 0.2 mm 2 mps 747 mmHg 76%
    05:00 +14°C° 0.2 mm 2 mps 747 mmHg 77%
    06:00 +14°C° 0.2 mm 2 mps 746 mmHg 78%
    07:00 +13°C° 0 mm 3 mps 746 mmHg 74%
    08:00 +14°C° 0 mm 3 mps 746 mmHg 70%
    09:00 +16°C° 0 mm 3 mps 746 mmHg 66%
    10:00 +18°C° 0 mm 3 mps 745 mmHg 57%
    11:00 +19°C° 0 mm 4 mps 745 mmHg 48%
    12:00 +21°C° 0 mm 4 mps 745 mmHg 39%
    13:00 +21°C° 0 mm 4 mps 745 mmHg 41%
    14:00 +21°C° 0 mm 3 mps 744 mmHg 43%
    15:00 +20°C° 0 mm 3 mps 744 mmHg 45%
    16:00 +20°C° 0 mm 3 mps 744 mmHg 48%
    17:00 +20°C° 0 mm 2 mps 743 mmHg 51%
    18:00 +19°C° 0 mm 2 mps 743 mmHg 55%
    19:00 +18°C° 0.1 mm 2 mps 743 mmHg 58%
    20:00 +17°C° 0.1 mm 2 mps 743 mmHg 61%
    21:00 +16°C° 0.1 mm 3 mps 743 mmHg 65%
    22:00 +14°C° 0 mm 3 mps 743 mmHg 68%
    23:00 +15°C° 0 mm 2 mps 743 mmHg 70%

    28 April, Sunday

    Time Temperature Precipitation Wind Pressure Humidity
    00:00 +14°C° 0 mm 2 mps 743 mmHg 73%
    01:00 +14°C° 0.2 mm 2 mps 742 mmHg 76%
    02:00 +13°C° 0.2 mm 2 mps 742 mmHg 78%
    03:00 +13°C° 0.2 mm 2 mps 742 mmHg 81%
    04:00 +13°C° 0.2 mm 2 mps 742 mmHg 83%
    05:00 +13°C° 0.2 mm 2 mps 742 mmHg 86%
    06:00 +13°C° 0.2 mm 2 mps 742 mmHg 88%
    07:00 +14°C° 0 mm 2 mps 742 mmHg 83%
    08:00 +15°C° 0 mm 2 mps 743 mmHg 79%
    09:00 +16°C° 0 mm 2 mps 743 mmHg 74%
    10:00 +16°C° 0.3 mm 3 mps 743 mmHg 72%
    11:00 +17°C° 0.3 mm 4 mps 743 mmHg 71%
    12:00 +17°C° 0.3 mm 4 mps 744 mmHg 69%
    13:00 +16°C° 0.2 mm 5 mps 744 mmHg 69%
    14:00 +15°C° 0.2 mm 6 mps 744 mmHg 69%
    15:00 +14°C° 0.2 mm 6 mps 744 mmHg 68%
    16:00 +14°C° 0 mm 6 mps 745 mmHg 66%
    17:00 +14°C° 0 mm 6 mps 745 mmHg 63%
    18:00 +14°C° 0 mm 6 mps 745 mmHg 61%
    19:00 +13°C° 0 mm 5 mps 745 mmHg 60%
    20:00 +10°C° 0 mm 5 mps 746 mmHg 60%
    21:00 +9°C° 0 mm 5 mps 746 mmHg 59%
    22:00 +8°C° 0 mm 5 mps 747 mmHg 58%
    23:00 +7°C° 0 mm 5 mps 747 mmHg 57%

    29 April, Monday

    Time Temperature Precipitation Wind Pressure Humidity
    00:00 +6°C° 0 mm 5 mps 747 mmHg 56%
    01:00 +6°C° 0 mm 5 mps 748 mmHg 59%
    02:00 +5°C° 0 mm 5 mps 748 mmHg 62%
    03:00 +3°C° 0 mm 5 mps 748 mmHg 64%
    04:00 +3°C° 0 mm 5 mps 749 mmHg 64%
    05:00 +2°C° 0 mm 5 mps 749 mmHg 63%
    06:00 +2°C° 0 mm 5 mps 749 mmHg 62%
    07:00 +3°C° 0 mm 5 mps 750 mmHg 56%
    08:00 +4°C° 0 mm 6 mps 750 mmHg 50%
    09:00 +7°C° 0 mm 6 mps 750 mmHg 43%
    10:00 +7°C° 0 mm 6 mps 750 mmHg 41%
    11:00 +8°C° 0 mm 6 mps 750 mmHg 39%
    12:00 +9°C° 0 mm 6 mps 750 mmHg 37%
    13:00 +10°C° 0 mm 6 mps 750 mmHg 36%
    14:00 +10°C° 0 mm 6 mps 750 mmHg 36%
    15:00 +10°C° 0 mm 5 mps 750 mmHg 36%
    16:00 +10°C° 0 mm 5 mps 750 mmHg 38%
    17:00 +10°C° 0 mm 5 mps 750 mmHg 39%
    18:00 +10°C° 0 mm 4 mps 750 mmHg 41%
    19:00 +8°C° 0 mm 4 mps 750 mmHg 45%
    20:00 +8°C° 0 mm 3 mps 751 mmHg 50%
    21:00 +7°C° 0 mm 2 mps 751 mmHg 54%
    22:00 +6°C° 0 mm 2 mps 751 mmHg 55%
    23:00 +5°C° 0 mm 2 mps 751 mmHg 56%
    Show more